This is the latest recevied weather packets stored in our database for station/object KI7CSN-13. If no packets are shown the sender has not sent any weather packets the latest 10 day(s).
| Time | Temp. | Humidity | Pressure | Rain* | Wind** | Luminosity | Snow |
|---|---|---|---|---|---|---|---|
| 1778047959 | 11.11° C | 40% | 981.7 hPa | 0 mm | - | - | - |
| 1778047659 | 11.11° C | 40% | 981.6 hPa | 0 mm | - | - | - |
| 1778047359 | 10.56° C | 40% | 981.6 hPa | 0 mm | - | - | - |
| 1778047059 | 11.11° C | 42% | 981.6 hPa | 0 mm | - | - | - |
| 1778046759 | 10.56° C | 42% | 981.6 hPa | 0 mm | - | - | - |
| 1778046459 | 11.11° C | 38% | 981.5 hPa | 0 mm | - | - | - |
| 1778046159 | 11.67° C | 40% | 981.6 hPa | 0 mm | - | - | - |
| 1778045859 | 11.67° C | 39% | 981.6 hPa | 0 mm | - | - | - |
| 1778045559 | 11.67° C | 38% | 981.7 hPa | 0 mm | - | - | - |
| 1778045259 | 12.22° C | 38% | 981.6 hPa | 0 mm | - | - | - |
| 1778044959 | 11.67° C | 38% | 981.5 hPa | 0 mm | - | - | - |
| 1778044659 | 12.22° C | 38% | 981.5 hPa | 0 mm | - | - | - |
| 1778044359 | 12.22° C | 37% | 981.5 hPa | 0 mm | - | - | - |
| 1778044059 | 12.22° C | 38% | 981.4 hPa | 0 mm | - | - | - |
| 1778043759 | 12.22° C | 36% | 981.3 hPa | 0 mm | - | - | - |
| 1778043459 | 12.78° C | 37% | 981.3 hPa | 0 mm | - | - | - |
| 1778043159 | 12.78° C | 37% | 981.3 hPa | 0 mm | - | - | - |
| 1778042859 | 12.78° C | 36% | 981.3 hPa | 0 mm | - | - | - |
| 1778042559 | 12.78° C | 37% | 981.2 hPa | 0 mm | - | - | - |
| 1778042259 | 12.78° C | 37% | 981.3 hPa | 0 mm | - | - | - |
| 1778041959 | 12.78° C | 37% | 981.2 hPa | 0 mm | - | - | - |
| 1778041659 | 12.78° C | 37% | 981.2 hPa | 0 mm | - | - | - |
| 1778041359 | 13.33° C | 37% | 981.2 hPa | 0 mm | - | - | - |
| 1778041059 | 13.33° C | 37% | 981.1 hPa | 0 mm | - | - | - |
| 1778040759 | 13.33° C | 37% | 981.1 hPa | 0 mm | - | - | - |
* Rain latest hour (hover to see other rain measurements)
** Current wind speed in m/s (hover to see current wind gust speed)